Location: Prague
(50.0830°N, 14.4670°E)
Time: 21:05:39
(UTC+01:00)

HuskySat-1 - Pass Details

Date: 01 December 2021
Orbit: 439 x 453 km, 51.6° (Epoch: 25 January)

Event Time Altitude Azimuth Distance (km) Brightness Sun altitude
Rises 18:21:39 0° 214° (SW) 2,463 ? -21.4°
Reaches altitude 10° 18:24:00 10° 201° (SSW) 1,590 ? -21.8°
Enters shadow 18:25:45 21° 177° (S) 1,085 ? -22.0°
